| time (UTC) | temp F | wind direction | speed MPH | gust MPH | rain 1hr in | rain 24hr in | rain mn in | humidity % | barometer mb |
| 20260504043016 | 44 | 360 | 0.0 | 2.0 | 0.00 | 0.04 | 0.00 | 64 | 1000.2 |
| 20260504041524 | 44 | 360 | 0.0 | 1.0 | 0.00 | 0.04 | 0.00 | 61 | 1000.4 |
| 20260504040026 | 44 | 360 | 0.0 | 1.0 | 0.00 | 0.04 | 0.00 | 68 | 1000.6 |
| 20260504034510 | 45 | 360 | 0.0 | 1.0 | 0.00 | 0.04 | 0.04 | 66 | 1000.7 |
| 20260504033013 | 46 | 360 | 0.0 | 2.0 | 0.00 | 0.04 | 0.04 | 62 | 1000.8 |
| 20260504031520 | 47 | 360 | 1.0 | 6.0 | 0.00 | 0.04 | 0.04 | 57 | 1000.9 |
| 20260504030038 | 47 | 360 | 0.0 | 2.0 | 0.00 | 0.04 | 0.04 | 56 | 1001.1 |
| 20260504024527 | 47 | 360 | 0.0 | 3.0 | 0.00 | 0.04 | 0.04 | 56 | 1001.1 |
| 20260504023012 | 47 | 360 | 0.0 | 2.0 | 0.00 | 0.04 | 0.04 | 52 | 1001.2 |
| 20260504021516 | 47 | 360 | 0.0 | 2.0 | 0.00 | 0.04 | 0.04 | 52 | 1001.4 |
| 20260504020019 | 48 | 360 | 0.0 | 2.0 | 0.00 | 0.04 | 0.04 | 51 | 1001.3 |
| 20260504014535 | 49 | 360 | 0.0 | 1.0 | 0.00 | 0.04 | 0.04 | 49 | 1001.5 |
| 20260504013027 | 51 | 360 | 0.0 | 2.0 | 0.00 | 0.04 | 0.04 | 44 | 1001.5 |
| 20260504011513 | 54 | 360 | 0.0 | 4.0 | 0.00 | 0.04 | 0.04 | 40 | 1001.5 |
| 20260504010021 | 55 | 360 | 1.0 | 5.0 | 0.00 | 0.04 | 0.04 | 32 | 1001.7 |
| 20260504004522 | 56 | 360 | 0.0 | 4.0 | 0.00 | 0.04 | 0.04 | 32 | 1001.8 |
| 20260504003031 | 57 | 360 | 2.0 | 9.0 | 0.00 | 0.04 | 0.04 | 30 | 1001.7 |
| 20260504001528 | 58 | 360 | 1.0 | 10.0 | 0.00 | 0.04 | 0.04 | 30 | 1001.7 |
| 20260504000018 | 58 | 360 | 4.0 | 10.0 | 0.00 | 0.04 | 0.04 | 28 | 1001.5 |
| 20260503234535 | 59 | 360 | 5.0 | 11.0 | 0.00 | 0.04 | 0.04 | 29 | 1001.6 |
| 20260503233024 | 59 | 360 | 5.0 | 15.0 | 0.00 | 0.04 | 0.04 | 28 | 1001.6 |
| 20260503231532 | 60 | 360 | 6.0 | 14.0 | 0.00 | 0.04 | 0.04 | 31 | 1001.4 |
| 20260503230028 | 61 | 283 | 4.0 | 11.0 | 0.00 | 0.04 | 0.04 | 38 | 1001.1 |
| 20260503224515 | 60 | 295 | 4.0 | 13.0 | 0.00 | 0.04 | 0.04 | 43 | 1001.1 |
| 20260503223023 | 58 | 359 | 1.0 | 6.0 | 0.00 | 0.04 | 0.04 | 55 | 1001.0 |
| 20260503221527 | 58 | 360 | 2.0 | 5.0 | 0.00 | 0.04 | 0.04 | 56 | 1000.6 |
| 20260503220028 | 58 | 28 | 2.0 | 6.0 | 0.00 | 0.04 | 0.04 | 56 | 1000.6 |
| 20260503214528 | 58 | 328 | 3.0 | 7.0 | 0.00 | 0.04 | 0.04 | 56 | 1000.5 |
| 20260503213019 | 58 | 23 | 2.0 | 6.0 | 0.00 | 0.04 | 0.04 | 56 | 1000.5 |
| 20260503211524 | 59 | 34 | 4.0 | 6.0 | 0.00 | 0.04 | 0.04 | 52 | 1000.4 |
| 20260503210028 | 61 | 26 | 3.0 | 9.0 | 0.00 | 0.04 | 0.04 | 50 | 1000.2 |
| 20260503204511 | 62 | 353 | 4.0 | 8.0 | 0.00 | 0.04 | 0.04 | 48 | 1000.1 |
| 20260503203021 | 63 | 35 | 3.0 | 10.0 | 0.00 | 0.04 | 0.04 | 48 | 1000.1 |
| 20260503201522 | 62 | 321 | 4.0 | 7.0 | 0.00 | 0.04 | 0.04 | 48 | 1000.2 |
| 20260503200024 | 62 | 29 | 3.0 | 7.0 | 0.00 | 0.04 | 0.04 | 50 | 1000.4 |
| 20260503194525 | 62 | 39 | 2.0 | 6.0 | 0.00 | 0.04 | 0.04 | 50 | 1000.4 |
| 20260503193022 | 64 | 1 | 3.0 | 7.0 | 0.00 | 0.04 | 0.04 | 48 | 1000.5 |
| 20260503191518 | 62 | 73 | 2.0 | 6.0 | 0.00 | 0.04 | 0.04 | 51 | 1000.6 |
| 20260503190021 | 62 | 136 | 1.0 | 7.0 | 0.00 | 0.04 | 0.04 | 50 | 1000.9 |
| 20260503184536 | 63 | 352 | 2.0 | 5.0 | 0.00 | 0.04 | 0.04 | 50 | 1001.0 |
| 20260503183008 | 61 | 136 | 1.0 | 4.0 | 0.00 | 0.04 | 0.04 | 55 | 1001.3 |
| 20260503181515 | 62 | 98 | 1.0 | 4.0 | 0.00 | 0.04 | 0.04 | 54 | 1001.3 |
| 20260503180025 | 62 | 358 | 1.0 | 4.0 | 0.00 | 0.04 | 0.04 | 52 | 1001.2 |
| 20260503174523 | 64 | 44 | 2.0 | 9.0 | 0.00 | 0.04 | 0.04 | 48 | 1001.2 |
| 20260503173042 | 63 | 264 | 2.0 | 9.0 | 0.00 | 0.04 | 0.04 | 46 | 1001.4 |
| 20260503171509 | 64 | 185 | 2.0 | 6.0 | 0.00 | 0.04 | 0.04 | 44 | 1001.4 |
| 20260503081503 | 42 | 360 | 0.0 | 2.0 | 0.00 | 0.00 | 0.00 | 71 | 1006.6 |
| 20260503071519 | 43 | 360 | 1.0 | 3.0 | 0.00 | 0.00 | 0.00 | 69 | 1007.2 |
| 20260503054510 | 43 | 360 | 2.0 | 5.0 | 0.00 | 0.00 | 0.00 | 63 | 1008.1 |
| 20260503053012 | 42 | 360 | 0.0 | 5.0 | 0.00 | 0.00 | 0.00 | 66 | 1008.1 |
| 20260503051518 | 40 | 360 | 3.0 | 9.0 | 0.00 | 0.00 | 0.00 | 69 | 1008.3 |
| 20260503050020 | 37 | 360 | 1.0 | 4.0 | 0.00 | 0.00 | 0.00 | 73 | 1008.6 |
| 20260503044522 | 37 | 360 | 0.0 | 2.0 | 0.00 | 0.00 | 0.00 | 75 | 1008.7 |